Wind_Speed
99 93 84 78 78 73 72 70 79 78 72 70 71 77 73 71 71 68 66 60 54 53 47 44 42 45 50 40 46 36 31 36 37 32 34 36 32 37 39 40 39 41 41 43
98 91 88 87 82 77 72 77 72 85 81 77 77 72 74 68 71 67 64 60 58 56 54 55 50 55 50 44 43 44 42 41 41 38 35 34 35 38 40 42 44 44 45 45
102 100 96 94 87 77 76 74 73 76 89 90 86 85 84 79 78 71 66 63 64 60 58 59 57 54 48 47 46 46 48 43 47 42 42 39 40 42 42 42 43 45 47 52
106 104 100 94 88 83 76 80 83 79 87 90 87 82 78 74 68 66 64 61 65 68 64 62 60 60 53 51 55 52 49 46 49 47 48 49 50 52 47 43 45 47 50 51
108 106 101 100 91 92 85 82 86 91 86 94 91 86 76 78 74 72 66 66 66 68 65 64 55 50 51 57 57 55 53 53 48 46 50 51 55 53 50 48 49 50 50 60
116 113 108 101 97 94 88 87 92 94 92 99 92 94 87 81 77 72 71 69 68 68 70 64 60 58 61 61 65 61 60 53 55 56 61 60 60 58 52 51 53 55 61 63
116 112 109 103 102 98 96 86 88 100 99 80 94 101 83 81 74 74 75 72 69 67 66 64 69 66 63 64 66 60 66 58 57 60 61 63 63 61 60 62 62 67 67 69
119 118 111 105 103 101 101 99 92 94 93 82 92 96 91 89 87 80 79 76 73 73 72 70 76 77 69 71 69 67 65 60 59 61 64 64 66 64 69 69 70 73 72 76
103 107 106 101 97 97 97 98 92 97 95 98 95 94 93 91 89 82 83 81 79 82 80 78 79 84 78 80 72 68 68 65 63 68 71 66 69 72 69 74 74 79 82 81
99 99 98 95 97 100 97 91 94 95 98 100 94 91 95 93 91 88 92 89 88 89 86 85 87 84 82 80 71 75 76 70 68 72 71 71 75 76 74 76 79 82 85 88
102 99 96 96 96 92 93 93 95 95 96 98 101 90 98 103 95 92 90 92 89 89 86 83 83 81 78 78 74 79 81 77 70 72 77 79 80 84 81 83 87 90 90 90
113 108 104 101 102 100 103 100 99 104 98 98 106 91 88 98 101 97 93 91 92 93 87 85 86 85 81 83 83 78 76 77 79 80 83 86 87 90 89 91 93 94 96 96
114 111 108 107 111 105 105 96 102 102 102 105 103 101 93 90 101 105 103 100 97 99 93 91 94 90 88 84 83 82 85 89 89 90 89 89 87 92 92 97 99 99 101 101
115 111 110 110 111 117 112 103 106 108 112 101 105 97 97 88 98 105 108 107 106 108 99 97 99 91 90 90 91 92 93 97 98 94 90 92 94 99 102 101 102 103 104 105
105 106 110 110 111 116 113 107 103 108 108 110 93 100 108 89 93 105 110 109 108 110 108 108 107 103 102 96 99 99 99 99 98 95 98 99 99 100 103 106 105 107 110 107
96 96 104 108 109 112 116 116 104 104 108 104 96 103 99 96 93 104 109 111 113 114 113 116 114 112 111 107 102 97 103 101 103 100 102 104 104 104 106 107 108 111 112 113
81 88 94 103 109 110 113 111 108 105 112 105 106 96 103 102 95 100 113 116 116 116 117 117 118 117 113 110 104 104 108 109 108 107 107 108 107 108 108 110 114 116 116 119
72 78 84 95 108 112 101 101 101 103 111 112 102 97 104 95 101 99 106 113 115 114 116 120 120 118 116 113 113 110 110 112 112 111 110 114 114 113 115 118 120 122 124 124
60 62 67 77 87 97 98 96 99 98 104 109 100 100 101 100 108 103 103 108 112 117 117 118 119 118 118 118 118 115 113 113 116 118 116 118 120 121 121 121 124 125 127 128
57 63 68 67 69 67 62 81 87 93 94 103 102 99 104 104 106 103 101 106 110 116 116 117 118 118 117 118 120 119 118 117 117 121 122 123 125 126 122 123 127 129 129 131
63 65 64 65 67 60 60 69 76 79 81 96 106 102 104 106 101 104 112 105 101 104 108 110 113 116 117 118 119 117 118 118 123 124 125 123 123 123 127 128 128 128 128 129
63 66 65 65 62 55 56 65 70 74 82 93 96 101 103 103 104 102 104 110 106 100 102 105 109 113 116 118 119 119 116 119 121 122 122 122 123 124 124 125 125 129 133 134
56 62 67 66 60 63 64 67 71 74 76 83 89 96 100 102 100 98 103 106 111 106 102 105 105 107 110 112 115 115 115 116 119 121 121 122 123 125 127 129 130 131 131 133
51 53 58 63 61 64 63 67 71 75 78 80 83 87 95 104 105 100 98 103 106 101 95 101 108 110 112 115 118 119 122 124 125 125 125 126 128 128 129 128 129 131 133 134
54 53 49 54 60 67 68 70 73 75 80 84 85 86 88 89 92 96 98 99 104 108 109 103 100 105 112 114 114 117 120 122 123 123 125 128 130 131 130 130 132 133 135 135
58 55 53 48 53 61 67 72 73 75 76 79 86 90 91 90 91 92 93 94 95 98 103 109 113 107 105 109 113 115 117 119 120 122 123 124 124 125 126 128 130 130 131 129
Wind_Direction
238 239 241 241 235 232 231 224 232 232 230 231 231 231 234 234 241 243 247 245 246 255 250 250 259 264 264 264 268 266 276 287 287 279 283 285 296 298 299 297 294 301 300 305
239 241 241 240 235 231 230 223 229 230 228 228 230 230 234 233 237 240 245 250 251 250 251 258 258 266 266 255 259 262 272 284 287 275 277 286 287 294 296 295 291 301 302 298
241 243 241 242 241 235 231 232 225 231 229 231 232 235 236 230 242 241 242 248 250 246 251 252 260 259 259 251 257 259 267 278 285 275 276 282 287 292 291 291 292 296 300 304
237 241 244 242 242 242 231 230 225 228 232 229 232 236 240 236 233 232 243 243 246 246 253 255 258 258 254 254 257 258 264 275 279 270 273 277 283 288 288 286 292 300 299 304
241 243 246 247 246 242 241 235 232 230 232 231 232 231 231 237 236 238 247 241 247 250 250 249 250 254 254 260 256 257 264 268 269 273 277 279 281 282 283 285 289 295 296 299
240 243 243 245 244 246 238 238 236 234 229 234 231 234 230 234 241 241 237 242 245 248 244 247 245 253 258 260 263 260 254 260 272 274 276 277 278 277 276 283 288 292 294 301
240 240 240 242 245 246 244 238 242 236 230 232 232 234 224 230 233 237 242 243 247 241 249 247 248 257 251 260 258 261 258 259 265 265 269 276 273 275 282 286 287 290 293 300
243 243 243 242 245 249 248 245 237 236 232 226 231 234 228 230 230 235 239 242 244 245 245 246 254 252 252 258 259 257 258 260 267 270 271 272 271 275 285 286 289 290 292 297
239 241 241 239 239 239 240 242 240 236 231 225 234 232 230 229 233 232 237 241 240 242 246 251 254 250 251 256 256 257 259 260 263 269 269 268 266 279 282 283 288 289 293 297
233 234 232 232 233 236 238 237 234 233 229 228 229 229 227 228 231 233 232 238 239 246 247 253 252 250 256 253 259 262 261 263 262 264 268 267 275 279 282 285 287 290 293 297
228 230 226 228 231 233 235 232 230 231 229 229 224 231 230 229 230 232 235 237 243 242 246 247 248 251 251 250 260 260 260 262 260 265 271 273 275 280 282 284 288 292 293 293
230 230 226 225 228 230 232 231 229 229 227 229 226 223 231 231 230 231 232 236 238 239 245 247 248 247 249 252 256 255 254 258 267 269 272 275 277 278 279 283 286 288 292 293
232 227 226 223 225 229 233 233 230 229 227 227 229 221 233 229 230 231 232 233 239 242 243 243 243 243 249 253 252 256 256 262 268 271 273 274 274 276 278 282 284 286 290 292
234 228 223 225 224 226 230 229 228 229 229 226 227 224 228 230 230 230 233 235 236 241 243 242 241 244 250 252 254 258 259 262 266 267 270 271 276 277 277 280 282 286 286 290
236 230 226 228 225 226 229 234 232 229 230 229 225 225 227 231 229 231 231 233 237 239 242 241 243 246 251 252 256 257 260 262 266 266 271 271 274 278 277 279 282 286 286 287
236 235 234 232 229 229 228 232 233 230 229 229 227 226 226 231 232 234 232 233 234 238 240 241 244 247 250 254 254 258 261 261 264 265 268 268 273 276 276 278 282 285 284 285
234 236 237 236 233 232 233 234 236 233 231 228 228 229 229 229 231 230 235 234 234 236 240 242 245 248 252 255 254 258 259 260 262 264 267 268 272 273 275 276 279 282 282 284
237 236 237 238 237 237 235 237 238 237 233 231 229 233 232 232 230 232 233 236 237 238 239 242 246 247 249 251 252 257 258 259 261 262 266 266 268 270 272 276 279 281 284 285
233 234 236 238 240 240 240 242 244 241 236 234 233 234 236 237 231 233 235 234 236 238 239 241 243 246 249 252 255 258 259 259 260 261 265 267 266 270 274 277 280 283 284 285
234 235 234 236 238 239 233 239 242 243 236 239 237 238 238 238 236 233 236 236 236 238 240 242 244 247 249 252 254 257 259 259 261 262 265 268 268 271 274 278 281 282 282 283
232 232 236 237 240 238 234 237 239 241 237 240 240 241 241 241 242 239 238 239 240 241 243 245 247 249 251 253 254 256 259 261 262 264 267 268 269 271 276 278 279 279 280 282
237 237 238 238 239 242 239 238 239 234 237 238 241 243 242 244 247 246 244 246 246 247 247 247 249 250 252 254 255 256 259 260 263 264 266 268 272 274 274 275 276 278 280 282
238 240 240 239 238 234 234 234 234 236 241 244 245 246 246 246 248 250 249 250 251 247 248 248 249 250 251 252 254 256 257 259 262 264 267 268 269 270 273 274 276 278 280 281
247 248 243 241 240 240 237 239 237 235 236 238 241 245 249 250 252 254 253 251 250 253 254 252 249 250 252 254 256 259 261 261 263 264 265 267 269 270 273 274 275 276 278 281
247 248 251 246 242 243 240 239 242 240 238 238 239 241 243 246 250 254 255 253 253 253 253 254 254 254 253 254 256 257 259 260 261 263 265 266 268 270 272 273 274 276 278 281
253 251 250 250 250 249 248 247 242 242 241 242 241 242 243 245 246 248 250 252 253 253 255 256 255 254 256 257 257 257 258 260 261 263 266 267 269 271 273 274 274 276 277 280
Height
10664 10675 10695 10704 10709 10714 10723 10733 10736 10747 10754 10764 10774 10775 10785 10795 10804 10813 10818 10824 10830 10835 10841 10842 10845 10846 10847 10848 10850 10850 10849 10849 10848 10847 10845 10844 10842 10841 10839 10837 10834 10832 10830 10828
10652 10671 10675 10681 10690 10702 10714 10717 10725 10730 10740 10747 10754 10765 10772 10786 10795 10803 10810 10817 10822 10828 10831 10834 10836 10838 10839 10841 10841 10841 10842 10841 10841 10840 10839 10838 10836 10834 10832 10830 10828 10826 10824 10821
10633 10644 10657 10665 10674 10688 10702 10706 10711 10718 10724 10732 10739 10752 10763 10774 10784 10795 10803 10808 10815 10817 10821 10824 10828 10827 10830 10832 10833 10833 10834 10835 10835 10833 10832 10832 10829 10826 10824 10821 10818 10817 10814 10811
10617 10627 10640 10651 10666 10676 10685 10691 10696 10700 10704 10718 10726 10746 10749 10760 10771 10786 10791 10798 10802 10806 10810 10814 10816 10817 10821 10822 10823 10824 10825 10826 10826 10825 10823 10824 10821 10818 10816 10813 10809 10807 10804 10801
10609 10616 10627 10636 10652 10656 10670 10669 10678 10685 10688 10701 10717 10731 10748 10753 10766 10776 10781 10785 10789 10793 10798 10802 10806 10807 10810 10812 10813 10814 10815 10816 10815 10814 10812 10811 10811 10809 10807 10803 10800 10797 10793 10791
10585 10600 10612 10623 10630 10637 10649 10657 10661 10670 10673 10683 10713 10715 10733 10748 10759 10757 10766 10771 10775 10780 10785 10789 10794 10796 10797 10800 10802 10803 10804 10805 10806 10805 10803 10802 10799 10798 10796 10793 10790 10787 10783 10780
10568 10581 10595 10605 10613 10621 10631 10644 10647 10649 10661 10694 10689 10693 10740 10733 10745 10747 10752 10759 10763 10768 10775 10778 10781 10782 10784 10786 10789 10789 10791 10792 10795 10796 10794 10792 10790 10788 10784 10783 10778 10776 10773 10768
10549 10562 10578 10593 10598 10608 10614 10615 10627 10634 10655 10674 10671 10687 10722 10718 10725 10734 10740 10744 10749 10756 10759 10762 10764 10766 10769 10772 10774 10776 10777 10778 10781 10783 10782 10781 10778 10775 10773 10770 10766 10763 10760 10755
10532 10542 10556 10568 10574 10578 10588 10593 10611 10615 10637 10649 10656 10678 10695 10705 10709 10720 10726 10729 10735 10738 10742 10743 10746 10750 10754 10757 10761 10763 10765 10764 10766 10768 10768 10768 10764 10761 10759 10756 10753 10750 10746 10741
10509 10520 10531 10540 10549 10553 10570 10582 10584 10593 10616 10631 10647 10662 10680 10687 10690 10699 10705 10711 10714 10717 10723 10726 10731 10735 10739 10744 10747 10750 10750 10750 10752 10752 10752 10753 10750 10747 10745 10742 10740 10735 10731 10726
10486 10494 10508 10519 10535 10547 10554 10562 10569 10579 10595 10615 10633 10643 10655 10668 10673 10682 10690 10695 10697 10702 10704 10708 10715 10720 10725 10729 10731 10733 10734 10736 10737 10737 10737 10737 10734 10732 10730 10727 10723 10719 10714 10709
10459 10470 10484 10502 10512 10522 10526 10540 10551 10556 10583 10591 10599 10632 10633 10645 10660 10667 10673 10675 10678 10682 10687 10692 10699 10705 10709 10711 10714 10717 10719 10720 10720 10721 10720 10719 10719 10715 10713 10710 10706 10701 10697 10693
10439 10450 10464 10476 10491 10504 10523 10532 10536 10544 10550 10566 10583 10629 10609 10622 10636 10646 10652 10656 10661 10665 10670 10675 10680 10681 10686 10693 10698 10701 10704 10703 10703 10703 10703 10703 10702 10699 10697 10693 10689 10685 10680 10675
10406 10425 10442 10459 10477 10476 10490 10496 10507 10515 10523 10552 10574 10601 10600 10604 10616 10625 10631 10636 10642 10645 10651 10656 10662 10663 10669 10677 10682 10685 10686 10686 10685 10686 10686 10687 10686 10682 10678 10675 10671 10666 10662 10657
10399 10418 10431 10444 10453 10464 10479 10485 10492 10501 10524 10530 10576 10571 10580 10585 10593 10596 10601 10614 10621 10624 10626 10634 10642 10648 10654 10659 10662 10665 10667 10668 10669 10669 10669 10668 10666 10662 10658 10655 10651 10648 10643 10637
10393 10409 10418 10430 10437 10443 10455 10463 10477 10494 10511 10519 10547 10554 10561 10564 10570 10578 10585 10591 10595 10598 10603 10612 10622 10630 10634 10638 10644 10648 10648 10649 10650 10651 10650 10647 10645 10642 10639 10636 10630 10626 10621 10616
10375 10392 10398 10410 10419 10425 10436 10466 10466 10476 10487 10505 10511 10542 10526 10542 10546 10553 10550 10557 10567 10578 10589 10597 10601 10609 10616 10620 10624 10628 10627 10630 10630 10631 10630 10627 10625 10621 10617 10611 10607 10603 10599 10594
10371 10381 10384 10390 10398 10406 10445 10447 10452 10456 10467 10479 10503 10515 10515 10521 10524 10526 10530 10540 10555 10564 10570 10573 10580 10585 10590 10597 10601 10602 10605 10607 10608 10610 10608 10604 10599 10595 10592 10589 10585 10580 10576 10572
10359 10365 10373 10378 10387 10407 10421 10435 10434 10439 10456 10465 10482 10489 10491 10493 10499 10510 10513 10523 10530 10534 10540 10547 10554 10560 10569 10574 10578 10582 10585 10587 10587 10585 10582 10577 10575 10573 10570 10566 10563 10559 10554 10550
10348 10352 10354 10366 10372 10389 10417 10413 10416 10421 10456 10446 10458 10465 10467 10467 10477 10502 10489 10496 10502 10510 10520 10531 10539 10545 10553 10554 10557 10560 10563 10566 10566 10558 10556 10557 10553 10550 10548 10546 10541 10535 10532 10526
10334 10339 10348 10355 10363 10385 10397 10393 10397 10411 10437 10423 10425 10436 10444 10456 10465 10474 10476 10480 10491 10501 10508 10517 10524 10530 10531 10533 10534 10538 10542 10548 10538 10537 10535 10535 10534 10531 10527 10523 10518 10512 10507 10503
10326 10329 10338 10345 10356 10375 10384 10382 10385 10390 10393 10403 10409 10419 10431 10439 10445 10457 10463 10460 10471 10483 10492 10500 10505 10509 10511 10512 10510 10513 10522 10516 10517 10512 10511 10513 10510 10507 10502 10497 10492 10487 10482 10477
10315 10320 10326 10332 10348 10351 10356 10360 10367 10374 10383 10389 10397 10402 10410 10419 10425 10435 10443 10449 10451 10458 10466 10473 10477 10481 10485 10485 10484 10488 10490 10492 10489 10488 10488 10485 10483 10480 10475 10470 10465 10460 10456 10450
10302 10305 10312 10320 10332 10334 10340 10344 10351 10357 10363 10369 10377 10384 10392 10398 10405 10413 10418 10427 10432 10434 10439 10448 10453 10456 10458 10458 10459 10463 10465 10463 10461 10462 10461 10459 10455 10450 10446 10443 10439 10434 10429 10422
10290 10292 10301 10310 10317 10318 10323 10327 10330 10339 10346 10351 10357 10364 10371 10378 10383 10387 10392 10401 10407 10412 10417 10420 10423 10427 10431 10433 10434 10436 10435 10434 10434 10433 10431 10430 10427 10424 10420 10415 10411 10408 10401 10394
10279 10285 10288 10296 10301 10306 10307 10312 10317 10321 10327 10332 10339 10346 10352 10357 10361 10365 10369 10372 10377 10383 10388 10392 10395 10399 10401 10405 10407 10408 10406 10405 10406 10406 10404 10402 10400 10396 10393 10390 10386 10380 10372 10368